timestamp,gas_concentrations,,corrected_fluxes_and_quality_flags,,,,,,,,,,storage_terms,,,turbulence,,,footprint,,
ISOdate,CO2_1_1_1,H2O_1_1_1,Tau_1_1_1,QcTau_1_1_1,H_1_1_1,QcH_1_1_1,LE_1_1_1, QcLE_1_1_1,Fc_1_1_1, QcFc_1_1_1,E_1_1_1, QcE_1_1_1,Sa_1_1_1,Sw_1_1_1,Sc_1_1_1,ustar_1_1_1,MO_length_1_1_1,ZL_1_1_1,Fetchmax_1_1_1,Fetch70_1_1_1,Fetch90_1_1_1
yyyymmddHHMM,[µmol+1mol_a-1],[mmol+1mol_a-1],[kg+1m-1s-2],[#],[W+1m-2],[#],[W+1m-2],[#],[µmol+1s-1m-2],[#],[mmol+1s-1m-2],[#],[W+1m-2],[W+1m-2],[µmol+1s-1m-2],[m+1s-1],[m],[#],[m],[m],[m]
201206260030,371.67197986145959,11.994806590233189,2.87100292712481539E-002,0,-18.585777817718583,0,16.927646731129272,0,4.0112811871722620,0,0.38122765556278088,0,-9999.,-9999.,-9999.,0.15767568072010568,17.877676511481077,1.2082106970739985,488.40142868285835,4863.0000000000000,-9999.
201206260100,377.32106909909385,12.621989454774390,4.14974816228383253E-002,0,-17.949944605539077,0,9.9059216395672376,1,2.2523683965872578,1,0.22296423613581481,1,-13.496244508900967,21.744669780329374,4.4083633843130521,0.18939313603112190,32.082486313451447,0.67326452784750723,342.09173099550225,3484.0000000000000,-9999.
201206260130,378.25025795600266,12.284852992007234,7.06484087493167018E-002,0,-27.583991563204766,0,40.802118613036562,1,3.6112528832685045,0,0.91812624084814376,1,-6.5863631021210001,-11.701942348269707,0.72573138884781097,0.24699619454346255,46.299814226487797,0.46652455006272558,100.51961721181621,183.78191935080739,275.33880463793486
201206260200,377.87526893243819,11.637956434782312,9.29254196257908727E-002,0,-28.756100520171827,0,11.337232266760189,0,1.6658044303839934,0,0.25514102402430955,0,2.9223591841802716,-22.435031713384639,-0.29267367007487638,0.28333901882804907,67.023511121331310,0.32227496946404310,103.47134031994834,189.17861059627390,283.42403152954438
201206260230,380.31331226551731,12.014263478193477,7.98138353336562689E-002,0,-27.970049729591967,0,3.9490624355713191,0,1.1475428636249116,0,8.88584353108146374E-002,0,-3.7439373248945462,13.058254083952495,1.9036576544438826,0.26255366337331754,54.824973333754755,0.39398103978103111,107.55485977515852,196.64458653213003,294.60942396039769
201206260300,380.10715973255128,11.782667588325985,6.93311926673317869E-002,0,-28.253902718684262,0,2.7097076267257494,1,1.4452627216961365,0,6.09478684830672690E-002,1,-9.2154283361964229,-8.0499663523079477,-0.16117140085901263,0.24453908742004868,43.845105372850156,0.49264335930585290,112.39680648421844,205.49720937598974,307.87226613958995
201206260330,380.27131521752091,11.407674574081522,3.12461610682315538E-002,0,-15.860700198428528,0,4.1788632442977685,0,0.99254804474475833,0,9.39768382128862156E-002,0,-4.0162573086986288,-13.042588006914412,0.12839812081279070,0.16411541567920149,23.605143840405045,0.91505479255022248,427.34913498745584,4356.0000000000000,-9999.
201206260400,383.54486939967722,11.664616586047638,5.51516187168774250E-002,0,-24.026467312150231,0,3.7559671311853831,0,1.8597969100594252,0,8.44308386545228329E-002,0,-10.045940298035664,8.9516260675687853,2.5636909211931256,0.21791139144535260,36.471872287131070,0.59223721310357458,115.09218112981598,210.42521387379426,315.25531487729432
201206260430,384.88954531672726,11.683525470669716,5.77243196255238650E-002,0,-31.839919988844901,0,3.5595053168991120,0,2.5463480984918641,0,7.99983449258231255E-002,0,-4.8235540942984283,0.65923261358204233,1.0536145407289865,0.22288085978758887,29.442949357041293,0.73362215646491791,115.01303308534129,210.28050600552046,315.03851612139408
201206260500,387.34382694907777,11.962118992722687,7.74416330037416417E-002,0,-29.743626805329725,0,-3.8818297673383064,2,1.2872709817838099,1,-8.72287727077085268E-002,2,-3.7372720232262111,9.7227170833117587,1.9247055913655582,0.25805703389773799,48.932661592636592,0.44142295344200894,116.06875483546422,212.21070206992783,317.93030155365039
201206260530,389.76746656448796,12.223209162991099,4.65994056786870406E-002,0,-32.324990679001189,0,2.4839201296295839,1,4.1065030125318289,0,5.58097118956720206E-002,1,-2.8090331919854612,9.1199023881284909,1.9021285525556231,0.20011250100153316,21.001600875367686,1.0284930243262629,202.98803066186335,1822.0000000000000,8809.0000000000000
201206260600,388.40545548624902,12.219678982072086,4.77069146506957503E-002,1,-33.928885516033219,0,1.3459959039988141,0,4.4038204073133898,0,3.02439613199310016E-002,0,1.2517599753283715,-0.12329396789874816,-1.0688590578495687,0.20248386171693980,20.730338788496049,1.0419511335717559,248.56856536046644,2291.0000000000000,-9999.
201206260630,388.93876208582003,12.331438306363054,2.69648733676221587E-002,0,-18.898945749554329,0,0.50314108879743491,2,2.4199890329569298,0,1.13080776905082111E-002,2,5.7115248183929443,3.8985871977576561,0.41811855552012245,0.15230593285482130,15.838010300026262,1.3638076747534496,434.59195702970101,4155.0000000000000,-9999.
201206260700,387.92782349431496,12.337839486402990,9.53258222742232736E-002,0,-47.465430490654889,0,11.140621330793239,0,5.3775996149472043,0,0.25044419513862776,0,5.6236965070688285,0.22308673556532621,-0.79202709485467282,0.28646861383825134,41.965361811315596,0.51471020545748636,115.16227396549939,210.55336593238690,315.44731001342865
201206260730,389.01420312684252,12.595258225668793,6.85843817671542011E-002,0,-14.570588199122861,0,9.9663493547991937,0,0.40616967225120004,0,0.22416590200495470,0,12.689585830125333,8.9512576420095495,0.84968697177688746,0.24320616338806247,83.672372225842125,0.25814972643178946,110.38500156974889,201.81898836007110,302.36162079811874
201206260800,387.76148360404670,12.819968003339659,0.11748245016358727,0,-3.9091448341339410,1,20.696766380298250,0,-2.8218731148096299,0,0.46568293827431340,0,8.4342415009018161,7.8012333371980498,-0.97854989035547513,0.31852322852497938,700.65610333993857,3.08282478337597379E-002,103.07655232489637,188.45681223014583,282.34264604820129
201206260830,384.62788387757627,13.236093853601307,0.11217884873533748,0,20.900151809551012,1,32.284359359144105,0,-4.5561226888210982,1,0.72697910136110921,0,18.621843188622627,14.397281226445928,-2.4413444949488170,0.31168523414042543,-122.81926777134625,-0.17586817110986949,103.68349502413484,189.56649705879929,284.00515613257517
201206260900,376.98220191010154,13.389579034737093,0.18530750742411770,0,47.537679926861351,0,82.128983577595591,0,-7.5791839916865342,0,1.8519513527093299,0,32.664921109131356,5.2768014920684054,-5.9272556732311985,0.40160024544740014,-115.51830180122029,-0.18698335816231526,110.58313922844255,202.18124719292820,302.90435054194091
201206260930,372.43389204412580,12.970439347680843,0.18721780163491086,0,39.705612050112521,0,77.822120714965976,0,-5.1828858087799654,0,1.7563292157246038,0,19.931317724035150,-14.353220077983652,-3.5151468084286570,0.40425783847116209,-141.05617432486753,-0.15313048225916634,104.55685118414095,191.16327066195132,286.39741396034367
201206261000,370.10961953749182,12.821386214248374,0.15810220677069539,1,73.888855720233110,0,76.867897541164879,0,-9.8190402893936799,0,1.7362592324435850,0,19.688063146703715,-5.0837522065523837,-1.7906053351628159,0.37207615896026747,-59.092161792530440,-0.36553071244603469,92.575270863680075,169.25712050710061,253.57800920517613
201206261030,369.39737314623602,12.687523409401200,0.17161753379332351,1,104.60375747131837,0,149.57612699065450,0,-11.997851550890841,0,3.3815932149226651,0,20.823192244318221,-4.5459651441872220,-0.54683401078727889,0.38830809579257486,-47.437269950741708,-0.45533817655251202,89.836610243385323,164.24997544219602,246.07639347665636
201206261100,368.61271995650822,12.083617474723860,0.21231847939814896,0,139.50078357890854,0,152.13252093035064,0,-13.414405166098565,0,3.4413337463932936,0,13.092391976263189,-20.451301445264029,-0.60108256165619911,0.43233872033792686,-49.082170705864030,-0.44007833576560557,90.646856610160214,165.73136421548517,248.29578380342139
201206261130,366.70752000872034,12.011091555777421,0.46186128970896556,0,118.82021677385050,0,183.26922655769908,1,-8.7089759975742691,0,4.1479257504947773,1,12.581164420335107,-2.4495196871600275,-1.4563631504118539,0.63832766411494890,-185.44005821587311,-0.11647968733300962,108.80894392100269,198.93745232035715,298.04455472601234
201206261200,364.61193203616540,11.841430598806360,0.45337579518636817,0,122.72544820581231,0,135.02473232150649,0,-11.941467866273577,0,3.0574047526460526,0,10.506862602308367,-5.7156836215731426,-1.5985704389198998,0.63307428892350459,-175.08067701157762,-0.12337169565874852,112.63210929817603,205.92741796588766,308.51679700152613
201206261230,364.24450056641246,12.120728354632172,0.57644174390013458,0,217.16792493448781,0,202.10543082180638,0,-19.172834507259626,0,4.5775884566070104,0,6.3073523297760534,9.3954794527646346,-0.27995395840399029,0.71430562281034826,-142.10835485114444,-0.15199669310524039,110.56365218806822,202.14561866805116,302.85097251930779
201206261300,364.28883946936702,12.220359989835554,0.48103437319504516,1,223.00832597520073,0,256.39899058014822,0,-19.513892257579389,0,5.8102483654955872,0,11.598882821142963,3.3432501017746672,3.37159140355498890E-002,0.65317982963513543,-105.80086303529842,-0.20415712481280590,106.26724459245091,194.29041531434086,291.08244648998709
201206261330,364.37116467018478,12.120726615785390,0.64171137031243108,0,209.27358930254860,0,243.55066344989461,0,-19.306087253102792,0,5.5196698071129005,0,2.3952094310856329,-3.3409158354156623,6.25629584876576939E-002,0.75463877442766714,-173.83323937725032,-0.12425701826291116,113.28403890616426,207.11935321157432,310.30253319860407
201206261400,364.24033693159845,12.508836102086198,0.66797567596664076,0,278.13189688636390,0,281.07619674409199,0,-20.017841429168158,0,6.3736377369244988,0,12.611331619612722,12.982590530080241,-9.92362268543323517E-002,0.77070579520677496,-139.34668816451764,-0.15500906612504686,117.21648319948756,214.30911556854963,321.07410735558983
201206261430,365.10163141360465,12.652615276010064,0.38626940112208985,1,241.49191391779362,0,175.01109769705687,0,-17.044735989535504,0,3.9692622642845916,0,4.2545803384072070,4.8047592878488183,0.65278703803662019,0.58632794204783123,-70.658569049701057,-0.30569540666478284,95.338224823896212,174.30868154534485,261.14616815540870
201206261500,365.27672378427047,12.330874745709140,0.65849900935631700,0,212.60116168011729,0,233.00591083068409,0,-17.472979526179468,0,5.2863034447386230,0,7.3978312941958100,-10.730444027263442,0.13248426289325066,0.76613949507571855,-178.98593354384738,-0.12067987451487916,117.82916348402755,215.42929053304326,322.75233357500525
201206261530,363.46894690371050,12.742861910995373,0.74657432663017065,0,323.59543319103517,0,241.87430360382524,0,-21.226324808370556,0,5.4888215638697728,0,5.4634985204684501,13.721522094044733,-1.3663212132973497,0.81629163659452975,-142.21242134006985,-0.15188546680003664,124.51594620006090,227.65486197791694,341.06846739022438
201206261600,363.57571373849959,12.481018596765725,0.48702417776744361,0,213.08327340968327,0,267.07717621752045,0,-16.721608188508270,0,6.0621766438410001,0,5.3615046564674760,-8.7087502423153182,8.06013888551206509E-002,0.65964973478675315,-113.93958529559879,-0.18957414970365313,109.21003470496220,199.67077419477963,299.14320452263848
201206261630,365.17218115847896,12.421592578701388,0.67691039692234800,0,213.67345236073712,0,233.35122718602904,0,-17.199754411418397,0,5.2967294989598104,0,0.30837819744909706,-1.9758765377050804,1.2048720747506758,0.77778839750308493,-186.22528676926800,-0.11598854470694020,126.98520782981929,232.16945976771984,347.83215754677690
201206261700,366.74035891869255,12.011342101428102,0.58073239728348269,0,179.57877477100357,0,278.40916041312806,0,-9.9121647000684945,0,6.3217007873140751,0,7.9773313853182675,-13.617569059828101,1.1819420875297932,0.72084192748218867,-176.36372153551244,-0.12247416765726757,124.57249647642902,227.75825391890345,341.22336735830055
201206261730,365.36680990985582,12.036506929529756,0.54986572885302076,0,169.39933059474066,0,228.45302895049358,0,-12.382347450652082,0,5.1894295587419661,0,8.9815557547107385,0.83357357399312693,-1.0335151103702804,0.70201522683674245,-172.65753428080947,-0.12510314183492191,116.70693071211184,213.37749110819624,319.67836414977683
201206261800,364.08756429938933,12.467021611914582,0.30359779569846063,1,138.87342672593232,0,239.01341059268782,0,-13.009175574239986,0,5.4307383726226348,0,5.9301458299643226,14.240565153326845,-0.96145686598333380,0.52197707256427550,-86.567370248490604,-0.24951664741573482,99.381170713349761,181.70047606272277,272.22042330375734
201206261830,364.40983214882158,12.204748714963998,0.46197074738901250,0,96.938047988573658,0,203.41286774713228,0,-6.4359415857994025,0,4.6209998417860731,0,-4.1184067470585290,-8.6809901712624082,0.24232061535800445,0.64370808835543769,-232.54976700965292,-9.28833439730060301E-002,109.14512228163157,199.55209358217567,298.96539933851864
201206261900,363.65564268754576,12.584809010807504,0.54683706312749714,0,93.091836412359541,0,164.61074017236635,0,-7.6469922775477528,0,3.7387979703532039,0,-4.3626510176516016,12.589547804430582,-0.56742951131578678,0.70018534072783456,-311.65423740355942,-6.93075768195966363E-002,112.29452589958481,205.31020784656010,307.59210377236417
201206261930,364.84242815550931,12.086443937998251,0.51071417137719988,0,27.566595684843431,1,115.62851094592907,0,-2.8578618302573124,0,2.6255616934935264,0,-6.0792780534943240,-16.524593968549784,0.89353735590092320,0.67635914718371248,-948.39012729815386,-2.27754374263002164E-002,119.70959951079922,218.86732732429238,327.90313918062549
201206262000,363.73880657695969,12.317416506200356,0.21706726911508079,0,-22.328100548061038,0,69.238633581824857,0,9.31071762246614698E-002,1,1.5709770089951094,0,-17.578262761820746,7.6833335731783707,-0.83297277939950520,0.44042257488298442,323.24526314480300,6.68223249116072227E-002,100.12500523350707,183.06044279942287,274.25790129371995
201206262030,362.06381849690069,12.937217546231734,0.21121877512376835,0,-19.794864978045954,1,33.571022803963366,0,0.36341101729719316,0,0.76104783554409616,0,-19.632220473029147,20.685913114062782,-1.2673060215581640,0.43397051183270374,348.70850863557519,6.19428533146964694E-002,115.83212020733259,211.77805849895947,317.28212264635903
201206262100,361.48244280778022,13.610206849158853,0.13336710617046552,0,-19.934773976591721,1,22.530482917925895,0,0.29910965217559238,1,0.51040374135849709,0,-16.010173555064682,22.525930946658967,-0.44083371625158274,0.34450837415031971,173.21296373603462,0.12470198265827843,114.25166510234151,208.88848250673314,312.95301126031791
201206262130,363.00483188893384,13.881619653158724,0.15169549782429548,1,-43.619122653788516,0,25.072487755702756,0,2.8406710850427546,0,0.56753620299479113,0,-18.347558796055807,9.1165573275359826,1.1575035677770387,0.36693977976270586,95.649175916180937,0.22582525979030352,115.97087796585012,212.03175193604676,317.66220164411277
201206262200,365.79180295872078,13.655206401614167,0.18258694056888156,0,-55.130047621759623,0,48.208967261891672,0,6.5130828011517714,0,1.0904495277970885,0,-16.875647686237354,-7.6279302788328947,2.1238071294000425,0.40209775652489010,99.553776222028660,0.21696816353632684,120.58392821864898,220.46587905508082,330.29806096761058
201206262230,368.22537062850478,13.711392898990598,0.10547059023541852,0,-40.627287395011187,0,15.895166414997457,0,4.8519474890206915,0,0.35931745542233767,0,-14.058709555939030,1.8981891228819572,1.8585069287325631,0.30527978561165153,59.118967658839622,0.36536497262009132,114.28302155492335,208.94581210268038,313.03890144186704
201206262300,369.40820558494602,13.819276369589964,0.12678807924742136,0,-42.085341707782170,0,8.7410754172060869,0,3.7977363460795068,0,0.19751894120269628,0,-9.0195304537229237,3.6516120365435900,0.90468575721087352,0.33446759958219918,75.062517947081943,0.28776013103141185,115.74134561687167,211.61209359652614,317.03347697974908
201206262330,371.38325890942440,13.730897924934473,0.17669438714587007,0,-42.639809478314234,0,12.442865232028314,0,3.9267595152808950,0,0.28107699076251502,0,-7.4121484603884040,-2.9954667214775617,1.5121743544579447,0.39463373151990661,121.67959478692126,0.17751538405288705,113.67870126706350,207.84092187840224,311.38357454853877
201206270000,373.48945133506135,13.880917447398716,0.41458435500713453,0,-90.946455857111090,0,21.029372035595408,0,10.767967028409501,0,0.47491848090872535,0,-5.9857644207393719,5.0892345186162675,1.6135985606354875,0.60431651113901652,204.82252037038805,0.10545715364179647,121.12532991609012,221.45573402921838,331.78104409406114
